DECAYED

STARLINK-4508, 53559 (Decayed)

Orbit data source: Space-Track

STARLINK-4508, 53559 was a payload satellite owned by SpaceX/Seattle (US) in LEO that was launched on Fri, 19 Aug 2022 UTC via an FALCON 9 launch vehicle from the Air Force Eastern Test Range (AFETR). Payload-class satellites include a variety of spacecraft equipped with specific instruments for various scientific and technological missions. These include communications satellites like Starlink; space stations such as the ISS; scientific satellites like the Hubble; Earth observation satellites from companies like Planet Labs, Umbra, and HawkEye 360; GPS; miniature CubeSats for education and research; and military/defense satellites.

Not visible in the next 10 days
Identifier
53559, 2022-101AJ
Orbit
Decayed
Country
Flag of USUS
Related business
Manufacturer
SpaceX/Seattle
Mission
Decayed Commercial Communications
Bus & Motor
STARLINK, Unknown motor
Mass
300 kg wet, ~290 kg dry
Launch date (UTC)
2022-08-19 (4 years ago)
Launch vehicle
FALCON 9
Launch site
Air Force Eastern Test Range (AFETR)
Object type
Payload
Rocket body
Debris
Shape & HBR
Box + 1 Pan, 10.1 m
Radar Cross Section
13.562 m², Large (>1 m²)

Expand to show TLE details & history
Last TLE update: 2 weeks ago

TLE from 2 weeks ago
0 STARLINK-4508
1 53559U 22101AJ  26159.97219514  .09717160  12511-4  28374-3 0  9996
2 53559  53.2045 348.2333 0007571 284.4845  75.5365 16.44753531210451
Epoch: 2026-06-08T23:19Z
TLE epoch observation values (Epoch: 2026-06-08T23:19:57.660Z)
Latitude
-0.00004°
Longitude
100.89163°
Altitude
152.905 km
Speed
7.816 km/s
True Right ascension
23h 12m 55s
True Declination
0° 00' 00"
Sunlit
Object was in daylight at epoch
Visualization orbit readout
Latitude
Unknown
Longitude
Unknown
Altitude
Unknown
Speed
Unknown
Apparent Right ascension
Unknown
Apparent Declination
Unknown
Sunlit
N/A
Visualization observer readout
Local Sidereal Time
21:28:54
Azimuth
Unknown
Elevation
Unknown
Doppler factor
Unknown
Orbital elements
Apogee altitude
158.394 km
Perigee altitude
148.504 km
Semi-major axis
6,531.586 km
Eccentricity
0.00076
Inclination
53.2045°
RAAN
348.2333°
Arg. of periapsis
284.4845°
True anomaly
75.62053°
Mean anomaly
75.5365°
Eccentric anomaly
75.57851°
Mean motion
4.11164 °/min
Orbital period
87.56 mins
BSTAR
0.00028374
Loading maneuver chart data...
Computing Atmospheric mass density...
Loading historical data...
Loading historical data...
Loading historical data...
Loading historical data...
Loading historical data...
Loading historical data...
Loading historical data...

Documentation

Showing up to 5 results
|